TZP25 KSFO-RJAA

Flight info

Callsign TZP25
Flight time N/A
Altitude 38000
Route GNNRR3 AMAKR DCT REDWD DCT TRYSH DCT GAPNE DCT 43N140W 46N150W 47N160W/N0497F400 47N170W 45N180E 41N170E 38N160E 36N150E SEALS OTR13 LAPIL Y811 POROT Y809 SUPOK
Aircraft B788/H-SDE1E2E3FGHIJ2J3J4J5M1RWXY/LB1D1

Departure

Time 2026-05-05 03:33
Airport San Francisco International Airport (KSFO)

Arrival

Time N/A
Airport Narita International Airport (RJAA)
Time Latitude Longitude Altitude Speed Heading
2026-05-05 03:09 37.61157 -122.39088 28 ft 0 kts 88°
2026-05-05 03:14 37.61157 -122.39094 28 ft 3 kts 86°
2026-05-05 03:15 37.61156 -122.39111 28 ft 0 kts 83°
2026-05-05 03:15 37.61157 -122.39088 28 ft 0 kts 88°
2026-05-05 03:16 37.61155 -122.39115 28 ft 6 kts 72°
2026-05-05 03:16 37.61146 -122.39147 26 ft 6 kts 74°
2026-05-05 03:16 37.61141 -122.39177 27 ft 6 kts 103°
2026-05-05 03:17 37.61155 -122.39201 25 ft 6 kts 150°
2026-05-05 03:17 37.61168 -122.39210 26 ft 10 kts 152°
2026-05-05 03:19 37.61164 -122.39208 26 ft 3 kts 152°
2026-05-05 03:20 37.61129 -122.39179 25 ft 9 kts 139°
2026-05-05 03:20 37.61078 -122.39107 28 ft 11 kts 129°
2026-05-05 03:20 37.61028 -122.39029 28 ft 11 kts 128°
2026-05-05 03:20 37.60980 -122.38953 28 ft 11 kts 128°
2026-05-05 03:21 37.60934 -122.38876 28 ft 11 kts 126°
2026-05-05 03:21 37.60896 -122.38797 28 ft 11 kts 118°
2026-05-05 03:21 37.60863 -122.38715 28 ft 10 kts 117°
2026-05-05 03:21 37.60842 -122.38666 26 ft 0 kts 118°
2026-05-05 03:24 37.60834 -122.38646 27 ft 5 kts 117°
2026-05-05 03:25 37.60808 -122.38581 28 ft 10 kts 112°
2026-05-05 03:25 37.60823 -122.38520 28 ft 6 kts 28°
2026-05-05 03:25 37.60863 -122.38505 28 ft 6 kts 13°
2026-05-05 03:25 37.60915 -122.38486 28 ft 9 kts 24°
2026-05-05 03:26 37.60947 -122.38435 28 ft 7 kts 92°
2026-05-05 03:26 37.60921 -122.38366 27 ft 13 kts 123°
2026-05-05 03:26 37.60879 -122.38258 28 ft 14 kts 101°
2026-05-05 03:26 37.60856 -122.38145 28 ft 13 kts 114°
2026-05-05 03:27 37.60813 -122.38045 28 ft 13 kts 118°
2026-05-05 03:27 37.60771 -122.37941 28 ft 14 kts 117°
2026-05-05 03:27 37.60751 -122.37850 28 ft 9 kts 66°
2026-05-05 03:27 37.60808 -122.37794 28 ft 15 kts 27°
2026-05-05 03:28 37.60936 -122.37709 28 ft 26 kts 27°
2026-05-05 03:28 37.61104 -122.37600 28 ft 27 kts 27°
2026-05-05 03:28 37.61262 -122.37495 28 ft 25 kts 28°
2026-05-05 03:28 37.61411 -122.37397 26 ft 23 kts 27°
2026-05-05 03:29 37.61528 -122.37297 28 ft 19 kts 52°
2026-05-05 03:29 37.61557 -122.37147 28 ft 17 kts 99°
2026-05-05 03:29 37.61511 -122.37011 28 ft 17 kts 118°
2026-05-05 03:29 37.61446 -122.36893 27 ft 16 kts 135°
2026-05-05 03:30 37.61371 -122.36785 28 ft 18 kts 126°
2026-05-05 03:30 37.61308 -122.36646 28 ft 18 kts 118°
2026-05-05 03:30 37.61250 -122.36508 28 ft 18 kts 118°
2026-05-05 03:30 37.61193 -122.36374 28 ft 17 kts 117°
2026-05-05 03:31 37.61142 -122.36244 28 ft 16 kts 118°
2026-05-05 03:31 37.61086 -122.36116 28 ft 17 kts 117°
2026-05-05 03:31 37.61054 -122.35984 28 ft 14 kts 78°
2026-05-05 03:31 37.61112 -122.35898 28 ft 12 kts 31°
2026-05-05 03:32 37.61183 -122.35893 28 ft 10 kts 326°
2026-05-05 03:32 37.61213 -122.35939 28 ft 0 kts 298°
2026-05-05 03:32 37.61238 -122.35998 27 ft 25 kts 298°
2026-05-05 03:32 37.61417 -122.36425 27 ft 85 kts 297°
2026-05-05 03:33 37.61785 -122.37303 28 ft 139 kts 298°
2026-05-05 03:33 37.62310 -122.38547 222 ft 173 kts 303°
2026-05-05 03:33 37.62863 -122.39887 1197 ft 169 kts 298°
2026-05-05 03:33 37.63430 -122.41230 1942 ft 179 kts 298°
2026-05-05 03:34 37.64051 -122.42656 2540 ft 193 kts 298°
2026-05-05 03:34 37.64729 -122.44190 3030 ft 211 kts 298°
2026-05-05 03:34 37.65512 -122.45942 3024 ft 245 kts 298°
2026-05-05 03:34 37.66353 -122.47815 2993 ft 246 kts 298°
2026-05-05 03:35 37.67203 -122.49723 3005 ft 248 kts 298°
2026-05-05 03:35 37.68187 -122.51511 3005 ft 250 kts 307°
2026-05-05 03:35 37.69229 -122.53273 3178 ft 252 kts 304°
2026-05-05 03:35 37.70266 -122.55074 3801 ft 255 kts 305°
2026-05-05 03:36 37.71335 -122.56893 4729 ft 262 kts 304°
2026-05-05 03:36 37.72441 -122.58766 5629 ft 269 kts 305°
2026-05-05 03:36 37.73571 -122.60681 6565 ft 274 kts 306°
2026-05-05 03:36 37.74699 -122.62599 7435 ft 277 kts 307°
2026-05-05 03:37 37.75859 -122.64572 8304 ft 281 kts 308°
2026-05-05 03:37 37.77032 -122.66569 9194 ft 284 kts 309°
2026-05-05 03:37 37.78218 -122.68588 10046 ft 288 kts 309°
2026-05-05 03:37 37.79440 -122.70667 10604 ft 302 kts 309°
2026-05-05 03:38 37.80735 -122.72871 11001 ft 321 kts 309°
2026-05-05 03:38 37.82132 -122.75183 11346 ft 338 kts 315°
2026-05-05 03:38 37.84015 -122.77020 11782 ft 347 kts 330°
2026-05-05 03:38 37.86059 -122.78715 12492 ft 354 kts 330°
2026-05-05 03:39 37.88103 -122.80422 13238 ft 359 kts 330°
2026-05-05 03:39 37.90203 -122.82164 13991 ft 363 kts 331°
2026-05-05 03:39 37.92331 -122.83926 14684 ft 367 kts 331°
2026-05-05 03:39 37.94484 -122.85714 15354 ft 372 kts 331°
2026-05-05 03:40 37.96659 -122.87525 16008 ft 377 kts 331°
2026-05-05 03:40 37.98869 -122.89364 16670 ft 381 kts 332°
2026-05-05 03:40 38.01092 -122.91216 17354 ft 384 kts 332°
2026-05-05 03:40 38.03337 -122.93085 18010 ft 388 kts 332°
2026-05-05 03:41 38.05611 -122.94981 18611 ft 392 kts 332°
2026-05-05 03:41 38.07903 -122.96895 19166 ft 395 kts 332°
2026-05-05 03:41 38.10211 -122.98824 19749 ft 398 kts 332°
2026-05-05 03:41 38.12537 -123.00768 20315 ft 401 kts 332°
2026-05-05 03:42 38.14851 -123.02703 20862 ft 404 kts 332°
2026-05-05 03:42 38.17213 -123.04680 21407 ft 407 kts 333°
2026-05-05 03:42 38.19588 -123.06670 21932 ft 410 kts 333°
2026-05-05 03:42 38.21980 -123.08676 22448 ft 413 kts 333°
2026-05-05 03:43 38.24389 -123.10698 22916 ft 417 kts 332°
2026-05-05 03:43 38.26819 -123.12739 23409 ft 420 kts 332°
2026-05-05 03:43 38.29265 -123.14795 23838 ft 423 kts 332°
2026-05-05 03:43 38.31732 -123.16870 24228 ft 426 kts 332°
2026-05-05 03:44 38.34213 -123.18959 24613 ft 428 kts 333°
2026-05-05 03:44 38.36679 -123.21037 24977 ft 431 kts 333°
2026-05-05 03:44 38.39184 -123.23149 25333 ft 434 kts 332°
2026-05-05 03:44 38.41710 -123.25282 25694 ft 436 kts 332°
2026-05-05 03:45 38.44256 -123.27434 26067 ft 439 kts 332°
2026-05-05 03:45 38.46807 -123.29590 26431 ft 441 kts 333°
2026-05-05 03:45 38.49377 -123.31765 26789 ft 444 kts 333°
2026-05-05 03:45 38.51961 -123.33954 27138 ft 446 kts 333°
2026-05-05 03:46 38.54519 -123.36122 27461 ft 448 kts 332°
2026-05-05 03:46 38.57123 -123.38332 27804 ft 450 kts 332°
2026-05-05 03:46 38.59746 -123.40560 28132 ft 453 kts 332°
2026-05-05 03:46 38.62379 -123.42797 28465 ft 455 kts 332°
2026-05-05 03:47 38.65020 -123.45044 28787 ft 457 kts 332°
2026-05-05 03:47 38.67675 -123.47304 29103 ft 459 kts 332°
2026-05-05 03:47 38.70338 -123.49575 29388 ft 461 kts 332°
2026-05-05 03:47 38.72114 -123.51089 29581 ft 463 kts 332°
2026-05-05 03:48 38.74801 -123.53383 29864 ft 465 kts 332°
2026-05-05 03:48 38.78381 -123.56443 30223 ft 468 kts 332°
2026-05-05 03:48 38.81097 -123.58766 30455 ft 471 kts 332°
2026-05-05 03:48 38.82939 -123.60343 30628 ft 472 kts 332°
2026-05-05 03:49 38.85673 -123.62685 30856 ft 474 kts 332°
2026-05-05 03:49 38.88425 -123.65046 31097 ft 476 kts 332°
2026-05-05 03:49 38.91152 -123.67387 31339 ft 477 kts 332°
2026-05-05 03:49 38.93911 -123.69757 31557 ft 479 kts 332°
2026-05-05 03:50 38.96663 -123.72193 31811 ft 483 kts 327°
2026-05-05 03:50 38.99150 -123.75155 32068 ft 493 kts 317°
2026-05-05 03:50 39.01253 -123.78682 32337 ft 502 kts 307°
2026-05-05 03:50 39.02922 -123.82674 32566 ft 508 kts 302°
2026-05-05 03:51 39.04483 -123.86764 32777 ft 510 kts 302°
2026-05-05 03:51 39.06038 -123.90890 32970 ft 512 kts 301°
2026-05-05 03:51 39.07593 -123.95017 33173 ft 513 kts 302°
2026-05-05 03:51 39.09159 -123.99148 33398 ft 514 kts 302°
2026-05-05 03:52 39.10704 -124.03232 33678 ft 513 kts 302°
2026-05-05 03:52 39.12258 -124.07359 33970 ft 512 kts 302°
2026-05-05 03:52 39.13808 -124.11485 34228 ft 511 kts 302°
2026-05-05 03:52 39.15358 -124.15607 34463 ft 511 kts 301°
2026-05-05 03:53 39.16907 -124.19728 34692 ft 510 kts 301°
2026-05-05 03:53 39.18451 -124.23847 34918 ft 510 kts 301°
2026-05-05 03:53 39.19990 -124.27962 35120 ft 510 kts 301°
2026-05-05 03:53 39.21535 -124.32092 35332 ft 510 kts 301°
2026-05-05 03:54 39.23076 -124.36219 35549 ft 510 kts 301°
2026-05-05 03:54 39.24620 -124.40360 35744 ft 510 kts 301°
2026-05-05 03:54 39.26156 -124.44487 35956 ft 511 kts 301°
2026-05-05 03:54 39.27693 -124.48623 36159 ft 511 kts 301°
2026-05-05 03:55 39.29229 -124.52757 36365 ft 511 kts 301°
2026-05-05 03:55 39.30765 -124.56900 36554 ft 511 kts 300°
2026-05-05 03:55 39.32281 -124.60995 36734 ft 512 kts 300°
2026-05-05 03:55 39.33815 -124.65145 36928 ft 512 kts 300°
2026-05-05 03:56 39.35349 -124.69300 37111 ft 512 kts 300°